• In Belarus
  • List of Countries
  • For 7 days
  • Water Temperature
  • Satellite Maps
  • Weather Map
  • Weather Widgets
  • user-avatar
    Login

    Hourly Weather Horog

    Today, 19 October, Friday

    Time Temperature Precipitation Wind Pressure Humidity
    00:00 -13°C° 0 mm 2 mps 483 mmHg 64%
    01:00 -13°C° 0 mm 2 mps 483 mmHg 63%
    02:00 -14°C° 0 mm 2 mps 483 mmHg 62%
    03:00 -14°C° 0 mm 2 mps 483 mmHg 61%
    04:00 -14°C° 0 mm 2 mps 483 mmHg 60%
    05:00 -14°C° 0 mm 2 mps 484 mmHg 59%
    06:00 -13°C° 0 mm 2 mps 484 mmHg 61%
    07:00 -12°C° 0 mm 2 mps 485 mmHg 62%
    08:00 -10°C° 0 mm 2 mps 486 mmHg 63%
    09:00 -7°C° 0 mm 1 mps 486 mmHg 60%
    10:00 -6°C° 0 mm 1 mps 487 mmHg 57%
    11:00 -3°C° 0 mm 1 mps 487 mmHg 55%
    12:00 -3°C° 0 mm 1 mps 488 mmHg 56%
    13:00 -2°C° 0 mm 1 mps 488 mmHg 58%
    14:00 -2°C° 0 mm 1 mps 488 mmHg 60%
    15:00 -3°C° 0 mm 1 mps 487 mmHg 63%
    16:00 -4°C° 0 mm 1 mps 486 mmHg 66%
    17:00 -6°C° 0 mm 1 mps 486 mmHg 69%
    18:00 -7°C° 0 mm 1 mps 486 mmHg 70%
    19:00 -8°C° 0 mm 1 mps 486 mmHg 71%
    20:00 -9°C° 0 mm 1 mps 485 mmHg 71%
    21:00 -10°C° 0 mm 1 mps 486 mmHg 71%
    22:00 -12°C° 0 mm 2 mps 486 mmHg 70%
    23:00 -12°C° 0 mm 2 mps 486 mmHg 70%

    Tomorrow, 20 October, Saturday

    Time Temperature Precipitation Wind Pressure Humidity
    00:00 -13°C° 0 mm 2 mps 485 mmHg 69%
    01:00 -13°C° 0 mm 2 mps 485 mmHg 67%
    02:00 -13°C° 0 mm 2 mps 485 mmHg 66%
    03:00 -13°C° 0 mm 2 mps 485 mmHg 64%
    04:00 -13°C° 0 mm 2 mps 485 mmHg 62%
    05:00 -13°C° 0 mm 2 mps 485 mmHg 60%
    06:00 -13°C° 0 mm 2 mps 485 mmHg 59%
    07:00 -12°C° 0 mm 2 mps 486 mmHg 58%
    08:00 -10°C° 0 mm 2 mps 487 mmHg 57%
    09:00 -8°C° 0 mm 2 mps 487 mmHg 54%
    10:00 -6°C° 0 mm 2 mps 488 mmHg 51%
    11:00 -2°C° 0 mm 1 mps 489 mmHg 47%
    12:00 -2°C° 0 mm 1 mps 489 mmHg 47%
    13:00 -1°C° 0 mm 1 mps 489 mmHg 46%
    14:00 0°C° 0 mm 1 mps 489 mmHg 46%
    15:00 -2°C° 0 mm 1 mps 488 mmHg 48%
    16:00 -3°C° 0 mm 1 mps 487 mmHg 51%
    17:00 -5°C° 0 mm 0 mps 486 mmHg 53%
    18:00 -6°C° 0 mm 1 mps 486 mmHg 54%
    19:00 -7°C° 0 mm 1 mps 486 mmHg 54%
    20:00 -8°C° 0 mm 1 mps 486 mmHg 54%
    21:00 -9°C° 0 mm 2 mps 486 mmHg 53%
    22:00 -10°C° 0 mm 2 mps 486 mmHg 53%
    23:00 -10°C° 0 mm 2 mps 486 mmHg 52%

    Day after tomorrow, 21 October, Sunday

    Time Temperature Precipitation Wind Pressure Humidity
    00:00 -10°C° 0 mm 2 mps 486 mmHg 52%
    01:00 -12°C° 0 mm 2 mps 486 mmHg 51%
    02:00 -12°C° 0 mm 2 mps 486 mmHg 51%
    03:00 -12°C° 0 mm 2 mps 486 mmHg 50%
    04:00 -12°C° 0 mm 2 mps 486 mmHg 50%
    05:00 -12°C° 0 mm 2 mps 486 mmHg 49%
    06:00 -12°C° 0 mm 2 mps 486 mmHg 49%
    07:00 -10°C° 0 mm 2 mps 487 mmHg 50%
    08:00 -9°C° 0 mm 2 mps 487 mmHg 50%
    09:00 -8°C° 0 mm 2 mps 488 mmHg 48%
    10:00 -6°C° 0 mm 2 mps 489 mmHg 46%
    11:00 -2°C° 0 mm 1 mps 489 mmHg 44%
    12:00 -2°C° 0 mm 1 mps 489 mmHg 43%
    13:00 -1°C° 0 mm 1 mps 490 mmHg 43%
    14:00 -1°C° 0 mm 0 mps 490 mmHg 42%
    15:00 -3°C° 0 mm 0 mps 489 mmHg 46%
    16:00 -4°C° 0 mm 0 mps 488 mmHg 49%
    17:00 -4°C° 0 mm 1 mps 487 mmHg 52%
    18:00 -6°C° 0 mm 1 mps 487 mmHg 52%
    19:00 -7°C° 0 mm 1 mps 487 mmHg 52%
    20:00 -9°C° 0 mm 2 mps 487 mmHg 52%
    21:00 -9°C° 0 mm 2 mps 487 mmHg 52%
    22:00 -9°C° 0 mm 2 mps 487 mmHg 52%
    23:00 -10°C° 0 mm 2 mps 487 mmHg 52%

    22 October, Monday

    Time Temperature Precipitation Wind Pressure Humidity
    00:00 -10°C° 0 mm 2 mps 486 mmHg 51%
    01:00 -10°C° 0 mm 2 mps 486 mmHg 51%
    02:00 -12°C° 0 mm 2 mps 486 mmHg 51%
    03:00 -12°C° 0 mm 2 mps 485 mmHg 50%
    04:00 -12°C° 0 mm 2 mps 485 mmHg 50%
    05:00 -12°C° 0 mm 2 mps 485 mmHg 50%
    06:00 -12°C° 0 mm 2 mps 485 mmHg 50%
    07:00 -10°C° 0 mm 2 mps 486 mmHg 50%
    08:00 -10°C° 0 mm 2 mps 486 mmHg 50%
    09:00 -8°C° 0 mm 2 mps 487 mmHg 48%
    10:00 -6°C° 0 mm 2 mps 488 mmHg 45%
    11:00 -2°C° 0 mm 1 mps 488 mmHg 43%
    12:00 -2°C° 0 mm 1 mps 488 mmHg 42%
    13:00 -1°C° 0 mm 1 mps 488 mmHg 41%
    14:00 -1°C° 0 mm 0 mps 489 mmHg 40%
    15:00 -3°C° 0 mm 0 mps 488 mmHg 44%
    16:00 -4°C° 0 mm 0 mps 487 mmHg 47%
    17:00 -5°C° 0 mm 0 mps 486 mmHg 51%
    18:00 -6°C° 0 mm 0 mps 486 mmHg 51%
    19:00 -7°C° 0 mm 1 mps 486 mmHg 51%
    20:00 -8°C° 0 mm 1 mps 485 mmHg 51%
    21:00 -8°C° 0 mm 1 mps 485 mmHg 51%
    22:00 -10°C° 0 mm 2 mps 485 mmHg 51%
    23:00 -10°C° 0 mm 2 mps 485 mmHg 51%

    23 October, Tuesday

    Time Temperature Precipitation Wind Pressure Humidity
    00:00 -10°C° 0 mm 2 mps 485 mmHg 50%
    01:00 -10°C° 0 mm 2 mps 485 mmHg 50%
    02:00 -12°C° 0 mm 2 mps 485 mmHg 49%
    03:00 -12°C° 0 mm 2 mps 485 mmHg 48%
    04:00 -12°C° 0 mm 2 mps 484 mmHg 47%
    05:00 -12°C° 0 mm 2 mps 484 mmHg 47%
    06:00 -12°C° 0 mm 2 mps 485 mmHg 46%
    07:00 -10°C° 0 mm 2 mps 485 mmHg 46%
    08:00 -9°C° 0 mm 2 mps 486 mmHg 46%
    09:00 -7°C° 0 mm 2 mps 487 mmHg 43%
    10:00 -4°C° 0 mm 1 mps 487 mmHg 41%
    11:00 -2°C° 0 mm 1 mps 488 mmHg 39%
    12:00 -1°C° 0 mm 1 mps 488 mmHg 39%
    13:00 0°C° 0 mm 1 mps 488 mmHg 39%
    14:00 0°C° 0 mm 1 mps 488 mmHg 39%
    15:00 -1°C° 0 mm 1 mps 487 mmHg 41%
    16:00 -2°C° 0 mm 1 mps 487 mmHg 44%
    17:00 -5°C° 0 mm 0 mps 486 mmHg 47%
    18:00 -4°C° 0 mm 1 mps 486 mmHg 46%
    19:00 -6°C° 0 mm 1 mps 486 mmHg 46%
    20:00 -7°C° 0 mm 1 mps 486 mmHg 46%
    21:00 -7°C° 0 mm 1 mps 486 mmHg 45%
    22:00 -7°C° 0 mm 1 mps 486 mmHg 45%
    23:00 -7°C° 0 mm 1 mps 486 mmHg 45%

    24 October, Wednesday

    Time Temperature Precipitation Wind Pressure Humidity
    00:00 -7°C° 0 mm 1 mps 486 mmHg 44%
    01:00 -7°C° 0 mm 1 mps 485 mmHg 44%
    02:00 -7°C° 0 mm 1 mps 485 mmHg 44%
    03:00 -7°C° 0 mm 1 mps 485 mmHg 43%
    04:00 -7°C° 0 mm 1 mps 485 mmHg 43%
    05:00 -7°C° 0 mm 1 mps 485 mmHg 42%
    06:00 -7°C° 0 mm 1 mps 485 mmHg 43%
    07:00 -7°C° 0 mm 1 mps 486 mmHg 43%
    08:00 -6°C° 0 mm 1 mps 486 mmHg 44%
    09:00 -4°C° 0 mm 1 mps 487 mmHg 41%
    10:00 -3°C° 0 mm 1 mps 487 mmHg 39%
    11:00 -2°C° 0 mm 1 mps 487 mmHg 36%
    12:00 -2°C° 0 mm 0 mps 487 mmHg 37%
    13:00 -2°C° 0 mm 0 mps 487 mmHg 38%
    14:00 -1°C° 0 mm 0 mps 487 mmHg 39%
    15:00 -2°C° 0 mm 0 mps 487 mmHg 44%
    16:00 -3°C° 0 mm 0 mps 486 mmHg 48%
    17:00 -3°C° 0 mm 1 mps 486 mmHg 52%
    18:00 -3°C° 0 mm 1 mps 486 mmHg 53%
    19:00 -4°C° 0 mm 1 mps 486 mmHg 53%
    20:00 -6°C° 0 mm 1 mps 486 mmHg 54%
    21:00 -7°C° 0 mm 2 mps 486 mmHg 53%
    22:00 -8°C° 0 mm 2 mps 485 mmHg 53%
    23:00 -8°C° 0 mm 2 mps 485 mmHg 52%
    Show more